When you browse on this site, cookies collect data to enhance your experience and personalize the content and advertising you see.
Visit our Privacy Policy to learn more. By continuing to use the site, you agree to this use of cookies and data.
  • In Österreich
  • Länderverzeichnis
  • Für 7 Tage
  • Wassertemperatur
  • Satellitenkarten
  • Wetterkarte
  • News
  • Widgets
  • user-avatar
    Anmelden

    Stündliche Wetter Vetchinskaya Rudnya

    Heute, 24 Juli, Mittwoch

    Zeit Temperatur Niederschläge Wind Luftdruck Luftfeuchtigkeit
    00:00 +16°C° 0 mm 3 m/S 746 mmHg 96%
    01:00 +16°C° 0 mm 3 m/S 746 mmHg 96%
    02:00 +14°C° 0 mm 3 m/S 746 mmHg 97%
    03:00 +14°C° 0 mm 3 m/S 746 mmHg 97%
    04:00 +14°C° 0 mm 3 m/S 746 mmHg 97%
    05:00 +14°C° 0 mm 3 m/S 746 mmHg 97%
    06:00 +16°C° 0 mm 3 m/S 746 mmHg 92%
    07:00 +18°C° 0 mm 3 m/S 746 mmHg 88%
    08:00 +19°C° 0 mm 4 m/S 746 mmHg 83%
    09:00 +21°C° 0 mm 4 m/S 747 mmHg 75%
    10:00 +22°C° 0 mm 4 m/S 747 mmHg 67%
    11:00 +25°C° 0 mm 4 m/S 747 mmHg 59%
    12:00 +25°C° 0 mm 4 m/S 747 mmHg 56%
    13:00 +26°C° 0 mm 4 m/S 747 mmHg 54%
    14:00 +26°C° 0 mm 4 m/S 747 mmHg 51%
    15:00 +26°C° 0 mm 4 m/S 747 mmHg 53%
    16:00 +26°C° 0 mm 4 m/S 747 mmHg 55%
    17:00 +26°C° 0 mm 3 m/S 747 mmHg 57%
    18:00 +24°C° 0.1 mm 3 m/S 747 mmHg 66%
    19:00 +20°C° 0.1 mm 3 m/S 747 mmHg 74%
    20:00 +18°C° 0.1 mm 2 m/S 747 mmHg 83%
    21:00 +18°C° 0 mm 2 m/S 747 mmHg 85%
    22:00 +17°C° 0 mm 2 m/S 748 mmHg 87%
    23:00 +16°C° 0 mm 2 m/S 748 mmHg 89%

    Morgen, 25 Juli, Donnerstag

    Zeit Temperatur Niederschläge Wind Luftdruck Luftfeuchtigkeit
    00:00 +16°C° 0 mm 2 m/S 748 mmHg 90%
    01:00 +15°C° 0 mm 2 m/S 748 mmHg 91%
    02:00 +15°C° 0 mm 2 m/S 748 mmHg 92%
    03:00 +15°C° 0 mm 2 m/S 748 mmHg 91%
    04:00 +14°C° 0 mm 2 m/S 748 mmHg 90%
    05:00 +14°C° 0 mm 2 m/S 748 mmHg 89%
    06:00 +16°C° 0 mm 2 m/S 748 mmHg 84%
    07:00 +18°C° 0 mm 2 m/S 748 mmHg 78%
    08:00 +20°C° 0 mm 2 m/S 748 mmHg 73%
    09:00 +20°C° 0.4 mm 2 m/S 748 mmHg 73%
    10:00 +21°C° 0.4 mm 2 m/S 748 mmHg 73%
    11:00 +23°C° 0.4 mm 2 m/S 748 mmHg 73%
    12:00 +23°C° 1.1 mm 2 m/S 748 mmHg 73%
    13:00 +22°C° 1.1 mm 3 m/S 748 mmHg 73%
    14:00 +23°C° 1.1 mm 4 m/S 747 mmHg 72%
    15:00 +24°C° 0.8 mm 3 m/S 747 mmHg 73%
    16:00 +22°C° 0.8 mm 3 m/S 747 mmHg 75%
    17:00 +22°C° 0.8 mm 3 m/S 746 mmHg 76%
    18:00 +21°C° 0.2 mm 2 m/S 746 mmHg 81%
    19:00 +19°C° 0.2 mm 2 m/S 746 mmHg 86%
    20:00 +18°C° 0.2 mm 2 m/S 746 mmHg 90%
    21:00 +17°C° 0 mm 2 m/S 746 mmHg 92%
    22:00 +16°C° 0 mm 2 m/S 746 mmHg 93%
    23:00 +16°C° 0 mm 2 m/S 746 mmHg 95%

    übermorgen, 26 Juli, Freitag

    Zeit Temperatur Niederschläge Wind Luftdruck Luftfeuchtigkeit
    00:00 +15°C° 0 mm 2 m/S 746 mmHg 96%
    01:00 +15°C° 0 mm 2 m/S 746 mmHg 96%
    02:00 +14°C° 0 mm 2 m/S 746 mmHg 97%
    03:00 +14°C° 0 mm 2 m/S 746 mmHg 97%
    04:00 +14°C° 0 mm 2 m/S 746 mmHg 97%
    05:00 +13°C° 0 mm 2 m/S 746 mmHg 98%
    06:00 +15°C° 0 mm 2 m/S 746 mmHg 96%
    07:00 +16°C° 0 mm 2 m/S 746 mmHg 94%
    08:00 +17°C° 0 mm 3 m/S 746 mmHg 92%
    09:00 +18°C° 0 mm 3 m/S 746 mmHg 86%
    10:00 +19°C° 0 mm 3 m/S 746 mmHg 80%
    11:00 +21°C° 0 mm 3 m/S 746 mmHg 74%
    12:00 +21°C° 0.3 mm 3 m/S 746 mmHg 73%
    13:00 +22°C° 0.3 mm 3 m/S 745 mmHg 72%
    14:00 +23°C° 0.3 mm 4 m/S 745 mmHg 71%
    15:00 +22°C° 0.6 mm 4 m/S 745 mmHg 75%
    16:00 +22°C° 0.6 mm 3 m/S 745 mmHg 79%
    17:00 +22°C° 0.6 mm 3 m/S 745 mmHg 83%
    18:00 +21°C° 0.8 mm 3 m/S 745 mmHg 86%
    19:00 +19°C° 0.8 mm 3 m/S 745 mmHg 90%
    20:00 +18°C° 0.8 mm 3 m/S 745 mmHg 94%
    21:00 +18°C° 0.6 mm 3 m/S 745 mmHg 95%
    22:00 +18°C° 0.6 mm 3 m/S 745 mmHg 96%
    23:00 +17°C° 0.6 mm 3 m/S 745 mmHg 97%

    27 Juli, Samstag

    Zeit Temperatur Niederschläge Wind Luftdruck Luftfeuchtigkeit
    00:00 +17°C° 0 mm 3 m/S 745 mmHg 97%
    01:00 +17°C° 0 mm 3 m/S 745 mmHg 97%
    02:00 +17°C° 0 mm 2 m/S 745 mmHg 97%
    03:00 +17°C° 0.4 mm 2 m/S 744 mmHg 97%
    04:00 +17°C° 0.4 mm 2 m/S 744 mmHg 98%
    05:00 +18°C° 0.4 mm 1 m/S 744 mmHg 98%
    06:00 +17°C° 0.7 mm 2 m/S 744 mmHg 98%
    07:00 +17°C° 0.7 mm 2 m/S 744 mmHg 97%
    08:00 +17°C° 0.7 mm 3 m/S 744 mmHg 97%
    09:00 +18°C° 0.4 mm 3 m/S 744 mmHg 95%
    10:00 +19°C° 0.4 mm 3 m/S 744 mmHg 93%
    11:00 +20°C° 0.4 mm 4 m/S 744 mmHg 92%
    12:00 +21°C° 0.9 mm 4 m/S 744 mmHg 89%
    13:00 +22°C° 0.9 mm 5 m/S 743 mmHg 87%
    14:00 +23°C° 0.9 mm 5 m/S 743 mmHg 84%
    15:00 +22°C° 1 mm 5 m/S 743 mmHg 86%
    16:00 +22°C° 1 mm 4 m/S 743 mmHg 87%
    17:00 +21°C° 1 mm 4 m/S 743 mmHg 88%
    18:00 +21°C° 0.2 mm 4 m/S 743 mmHg 90%
    19:00 +20°C° 0.2 mm 3 m/S 743 mmHg 93%
    20:00 +19°C° 0.2 mm 3 m/S 743 mmHg 95%
    21:00 +19°C° 0 mm 2 m/S 743 mmHg 95%
    22:00 +18°C° 0 mm 2 m/S 743 mmHg 96%
    23:00 +18°C° 0 mm 2 m/S 743 mmHg 97%

    28 Juli, Sonntag

    Zeit Temperatur Niederschläge Wind Luftdruck Luftfeuchtigkeit
    00:00 +18°C° 0 mm 2 m/S 743 mmHg 97%
    01:00 +17°C° 0 mm 2 m/S 743 mmHg 97%
    02:00 +17°C° 0 mm 2 m/S 743 mmHg 97%
    03:00 +17°C° 0 mm 2 m/S 743 mmHg 97%
    04:00 +17°C° 0 mm 2 m/S 743 mmHg 97%
    05:00 +17°C° 0 mm 2 m/S 743 mmHg 97%
    06:00 +18°C° 0 mm 2 m/S 743 mmHg 94%
    07:00 +20°C° 0 mm 3 m/S 743 mmHg 91%
    08:00 +21°C° 0 mm 3 m/S 743 mmHg 87%
    09:00 +24°C° 0.2 mm 3 m/S 743 mmHg 80%
    10:00 +25°C° 0.2 mm 4 m/S 743 mmHg 73%
    11:00 +27°C° 0.2 mm 4 m/S 743 mmHg 66%
    12:00 +27°C° 0.2 mm 4 m/S 743 mmHg 65%
    13:00 +27°C° 0.2 mm 4 m/S 743 mmHg 64%
    14:00 +28°C° 0.2 mm 5 m/S 742 mmHg 64%
    15:00 +27°C° 0.5 mm 4 m/S 742 mmHg 68%
    16:00 +27°C° 0.5 mm 3 m/S 742 mmHg 72%
    17:00 +27°C° 0.5 mm 3 m/S 742 mmHg 76%
    18:00 +25°C° 0.1 mm 3 m/S 742 mmHg 81%
    19:00 +22°C° 0.1 mm 3 m/S 743 mmHg 87%
    20:00 +20°C° 0.1 mm 3 m/S 743 mmHg 92%
    21:00 +19°C° 0 mm 3 m/S 743 mmHg 92%
    22:00 +18°C° 0 mm 3 m/S 743 mmHg 93%
    23:00 +17°C° 0 mm 3 m/S 744 mmHg 93%

    29 Juli, Montag

    Zeit Temperatur Niederschläge Wind Luftdruck Luftfeuchtigkeit
    00:00 +16°C° 0 mm 3 m/S 744 mmHg 92%
    01:00 +16°C° 0 mm 3 m/S 744 mmHg 91%
    02:00 +14°C° 0 mm 3 m/S 744 mmHg 90%
    03:00 +13°C° 0 mm 3 m/S 744 mmHg 91%
    04:00 +12°C° 0 mm 3 m/S 745 mmHg 92%
    05:00 +12°C° 0 mm 2 m/S 745 mmHg 93%
    06:00 +12°C° 0 mm 3 m/S 745 mmHg 85%
    07:00 +13°C° 0 mm 3 m/S 745 mmHg 77%
    08:00 +16°C° 0 mm 3 m/S 746 mmHg 70%
    09:00 +17°C° 0 mm 4 m/S 746 mmHg 65%
    10:00 +18°C° 0 mm 4 m/S 746 mmHg 60%
    11:00 +19°C° 0 mm 4 m/S 746 mmHg 56%
    12:00 +19°C° 0 mm 4 m/S 746 mmHg 55%
    13:00 +20°C° 0 mm 4 m/S 746 mmHg 53%
    14:00 +20°C° 0 mm 4 m/S 746 mmHg 52%
    15:00 +20°C° 0 mm 3 m/S 746 mmHg 54%
    16:00 +19°C° 0 mm 3 m/S 746 mmHg 57%
    17:00 +19°C° 0 mm 3 m/S 746 mmHg 59%
    18:00 +18°C° 0 mm 2 m/S 747 mmHg 65%
    19:00 +16°C° 0 mm 2 m/S 747 mmHg 70%
    20:00 +15°C° 0 mm 1 m/S 747 mmHg 76%
    21:00 +14°C° 0 mm 1 m/S 747 mmHg 78%
    22:00 +13°C° 0 mm 2 m/S 747 mmHg 80%
    23:00 +13°C° 0 mm 2 m/S 748 mmHg 82%
    Mehr zeigen